Date,TemperatureHighF,TemperatureAvgF,TemperatureLowF,DewpointHighF,DewpointAvgF,DewpointLowF,HumidityHigh,HumidityAvg,HumidityLow,PressureMaxIn,PressureMinIn,WindSpeedMaxMPH,WindSpeedAvgMPH,GustSpeedMaxMPH,PrecipitationSumIn
2013-9-1,96,84,73,-100,-100,-100,0,0,100,0.00,40.00,6,2,7,0.00
2013-9-2,92,84,77,-100,-100,-100,0,0,100,0.00,40.00,10,4,11,0.00
2013-9-3,98,86,76,-100,-100,-100,0,0,100,0.00,40.00,6,3,7,0.00
2013-9-4,102,87,76,-100,-100,-100,0,0,100,0.00,40.00,6,3,7,0.00
2013-9-5,100,91,77,-100,-100,-100,0,0,100,0.00,40.00,10,4,10,0.00
2013-9-6,99,85,79,-100,-100,-100,0,0,100,0.00,40.00,6,3,9,0.00
2013-9-7,88,79,71,-100,-100,-100,0,0,100,0.00,40.00,6,3,8,0.00
2013-9-8,80,74,69,-100,-100,-100,0,0,100,0.00,40.00,7,3,8,0.00
2013-9-9,76,71,69,-100,-100,-100,0,0,100,0.00,40.00,8,3,8,0.00
2013-9-10,83,75,66,-100,-100,-100,0,0,100,0.00,40.00,8,4,8,0.00
2013-9-11,86,77,65,-100,-100,-100,0,0,100,0.00,40.00,6,3,8,0.00
2013-9-12,91,78,65,-100,-100,-100,0,0,100,0.00,40.00,4,2,6,0.00
2013-9-13,94,86,71,-100,-100,-100,0,0,100,0.00,40.00,5,2,6,0.00
2013-9-14,95,83,75,-100,-100,-100,0,0,100,0.00,40.00,5,2,7,0.00
2013-9-15,97,86,74,-100,-100,-100,0,0,100,0.00,40.00,7,3,8,0.00
2013-9-16,99,89,78,-100,-100,-100,0,0,100,0.00,40.00,7,3,8,0.00
2013-9-17,98,89,80,-100,-100,-100,0,0,100,0.00,40.00,7,4,8,0.00
2013-9-18,87,83,80,-100,-100,-100,0,0,100,0.00,40.00,5,-60,5,0.00
2013-9-19,95,84,69,-100,-100,-100,0,0,100,0.00,40.00,5,2,7,0.00
2013-9-20,97,79,68,-100,-100,-100,0,0,100,0.00,40.00,6,3,6,0.00
2013-9-21,95,84,75,-100,-100,-100,0,0,100,0.00,40.00,7,3,9,0.00
2013-9-22,88,80,69,-100,-100,-100,0,0,100,0.00,40.00,8,3,11,0.00
2013-9-23,86,70,58,-100,-100,-100,0,0,100,0.00,40.00,6,3,8,0.00
2013-9-24,93,75,61,-100,-100,-100,0,0,100,0.00,40.00,7,3,8,0.00
2013-9-25,91,79,68,-100,-100,-100,0,0,100,0.00,40.00,6,4,9,0.00
2013-9-26,89,79,66,-100,-100,-100,0,0,100,0.00,40.00,9,4,10,0.00
2013-9-27,77,70,65,-100,-100,-100,0,0,100,0.00,40.00,5,2,6,0.00
2013-9-28,83,65,51,-100,-100,-100,0,0,100,0.00,40.00,3,2,5,0.00
2013-9-29,87,73,60,-100,-100,-100,0,0,100,0.00,40.00,4,2,6,0.00
2013-9-30,87,76,62,-100,-100,-100,0,0,100,0.00,40.00,5,2,5,0.00